User: anonymous   Login
Location: Bismarck
(46.7731°N, 100.8200°W)
Time: 17:32:39
(UTC-05:00)
Language:

Landsat 7 - Orbit

View from above orbital plane
View from above orbital plane
View from above satellite
View from above satellite

Ground track
Ground track

The orbit data is extracted from the following two-line orbital elements,

1 25682U 99020A   17142.78668928 +.00000031 +00000-0 +16904-4 0  9990
2 25682 098.2115 214.2991 0001365 090.1931 269.9403 14.57110137962894
Epoch (UTC): 22 May 2017 18:52:49
Eccentricity: 0.0001365
inclination: 98.2115°
perigee height: 701 km
apogee height: 703 km
right ascension of ascending node: 214.2991°
argument of perigee: 90.1931°
revolutions per day: 14.57110137
mean anomaly at epoch: 269.9403°
orbit number at epoch: 96289

The dashed part of the orbit path shows where the satellite is in the earth's shadow,  

DLR